sat.trackr.live / text

‹ back to catalog

STARLINK-31210

NORAD 59033 · 2024-038L

PAYLOAD ACTIVE UNKNOWN

§ Identity

Operator
Country
US
Launch date
2024-02-25
Launch site
AFETR
Launch vehicle
Mass (kg)
RCS (m²)

Purposes: comms

External: N2YO · Heavens-Above · Gunter

§ Orbital elements

Epoch: 2026-05-25T04:01:39.531360Z

Period
94.27 min
Inclination
43.0019°
Eccentricity
0.0001183
Mean motion
15.27574223 rev/d
Perigee alt
482.3 km
Apogee alt
483.9 km
Semi-major
6,861.2 km
B*
2.2941e-5
RAAN
311.7386°
Arg perigee
272.9167°
Mean anomaly
87.1549°
Rev number
12,655

§ Raw data

STARLINK-312101 59033U 24038L   26145.16781865  .00000369  00000+0  22941-4 0  99962 59033  43.0019 311.7386 0001183 272.9167  87.1549 15.27574223126556

JSON: /api/v1/satellites/59033 · /tle

For live sub-satellite position, see the globe view (requires WebGL).

§ Visibility from observer

Set your observer location to see the next 7 days of passes ≥ 10°. The values pass through the URL so the page stays shareable.

No JS? Fill the form by hand. The geolocation button needs JavaScript.